Weather History for Honolulu, HI

Change the Weather History Date:

Friday, June 20, 2014

  Actual Average Record
Temperature  
Mean Temperature 78 °F 81 °F  
Max Temperature 85 °F 87 °F 90 °F (1969)
Min Temperature 70 °F 74 °F 68 °F (1959)
Degree Days  
Heating Degree Days 0 0  
Month to date heating degree days 0 0  
Since 1 June heating degree days 0 0  
Since 1 July heating degree days 0 0  
Cooling Degree Days 13 16  
Month to date cooling degree days 310 298  
Year to date cooling degree days 1919 1800  
Since 1 June cooling degree days 310 298  
Growing Degree Days 27 (Base 50)    
Moisture  
Dew Point 64 °F    
Average Humidity 67    
Maximum Humidity 90    
Minimum Humidity 44    
Precipitation  
Precipitation 0.06 in 0.01 in 0.08 in (1947)
Month to date precipitation 0.29 0.18  
Year to date precipitation 10.26 7.75  
Snow  
Snow 0.00 in - - ()
Month to date snowfall 0.0  
Since 1 June snowfall 0.0  
Since 1 July snowfall 0.0  
Snow Depth 0.00 in    
Sea Level Pressure  
Sea Level Pressure 30.06 in    
Wind  
Wind Speed 7 mph (NNE)    
Max Wind Speed 20 mph    
Max Gust Speed 25 mph    
Visibility 10 miles    
Events Rain    
T = Trace of Precipitation, MM = Missing Value Source: NWS Daily Summary

Daily Weather History Graph

Daily Weather History Graph

Search for Another Location

Airport:

Trip Planner

Search our weather history database for the weather conditions in past years. The results will help you decide how hot, cold, wet, or windy it might be!

Date:

Astronomy

Jun. 20, 2014 Rise Set
Actual Time 5:50 AM HST 7:16 PM HST
Civil Twilight 5:25 AM HST 7:41 PM HST
Nautical Twilight 4:55 AM HST 8:10 PM HST
Astronomical Twilight 4:25 AM HST 8:41 PM HST
Moon 12:56 AM HST (6/20) 1:38 PM HST (6/20)
Length of Visible Light 14h 15m
Length of Day
13h 25m
Last Quarter, 38% of the Moon is Illuminated
Jun 20
Last Quarter
Jun 26
New
Jul 5
First Quarter
Jul 12
Full
Jul 18
Last Quarter

Hourly Weather History & Observations

Time (HST) Temp. Heat Index Dew Point Humidity Pressure Visibility Wind Dir Wind Speed Gust Speed Precip Events Conditions
12:53 AM 73.9 °F - 64.9 °F 73% 30.09 in 10.0 mi Calm Calm - N/A   Mostly Cloudy
1:53 AM 71.1 °F - 68.0 °F 90% 30.08 in 3.0 mi ESE 4.6 mph - 0.06 in Rain Rain
2:53 AM 71.1 °F - 68.0 °F 90% 30.07 in 10.0 mi Calm Calm - 0.00 in   Mostly Cloudy
3:53 AM 72.0 °F - 68.0 °F 87% 30.06 in 10.0 mi WNW 4.6 mph - 0.00 in   Mostly Cloudy
4:53 AM 71.1 °F - 66.9 °F 87% 30.06 in 10.0 mi North 4.6 mph - N/A   Scattered Clouds
5:53 AM 71.1 °F - 66.9 °F 87% 30.07 in 10.0 mi North 3.5 mph - N/A   Mostly Cloudy
6:53 AM 73.0 °F - 66.9 °F 81% 30.09 in 10.0 mi North 3.5 mph - 0.00 in Rain Light Rain
7:53 AM 75.9 °F - 66.0 °F 71% 30.10 in 10.0 mi Variable 3.5 mph - N/A   Scattered Clouds
8:53 AM 78.1 °F - 64.9 °F 64% 30.10 in 10.0 mi NE 11.5 mph - N/A   Scattered Clouds
9:53 AM 80.1 °F 81.7 °F 64.0 °F 58% 30.09 in 10.0 mi North 6.9 mph - N/A   Scattered Clouds
10:53 AM 82.0 °F 83.1 °F 63.0 °F 52% 30.07 in 10.0 mi NE 8.1 mph - N/A   Scattered Clouds
11:53 AM 82.9 °F 83.7 °F 62.1 °F 49% 30.06 in 10.0 mi NNE 8.1 mph 25.3 mph N/A   Scattered Clouds
12:53 PM 84.9 °F 84.8 °F 60.1 °F 43% 30.04 in 10.0 mi NNE 12.7 mph 20.7 mph N/A   Scattered Clouds
1:53 PM 84.0 °F 84.5 °F 62.1 °F 47% 30.03 in 10.0 mi NNE 15.0 mph 21.9 mph N/A   Scattered Clouds
2:53 PM 82.9 °F 84.0 °F 63.0 °F 51% 30.02 in 10.0 mi NE 17.3 mph 24.2 mph N/A   Scattered Clouds
3:53 PM 84.0 °F 84.5 °F 62.1 °F 47% 30.01 in 10.0 mi NNE 19.6 mph 23.0 mph N/A   Scattered Clouds
4:53 PM 82.0 °F 83.0 °F 62.1 °F 51% 30.01 in 10.0 mi NNE 13.8 mph 21.9 mph N/A   Scattered Clouds
5:53 PM 79.0 °F - 63.0 °F 58% 30.02 in 10.0 mi NNE 10.4 mph - N/A   Scattered Clouds
6:53 PM 78.1 °F - 63.0 °F 60% 30.04 in 10.0 mi NE 10.4 mph - N/A   Scattered Clouds
7:53 PM 78.1 °F - 63.0 °F 60% 30.05 in 10.0 mi NNE 5.8 mph - N/A   Mostly Cloudy
8:53 PM 77.0 °F - 64.0 °F 64% 30.06 in 10.0 mi NE 5.8 mph - 0.00 in   Mostly Cloudy
9:53 PM 77.0 °F - 64.0 °F 64% 30.06 in 10.0 mi NE 6.9 mph - N/A   Scattered Clouds
10:53 PM 75.9 °F - 64.0 °F 67% 30.07 in 10.0 mi Calm Calm - N/A   Scattered Clouds
11:53 PM 75.9 °F - 64.0 °F 67% 30.05 in 10.0 mi NE 9.2 mph - N/A   Scattered Clouds